Погода в Вытегре

Хотите узнать прогноз погоды в Вытегре? Тогда Вам сюда: Погода в Вытегре

Поиск расширенной информации на нашем сайте:

Полезная информация:

Новости сайта



02.01.2020
Опубликован Долгосрочный прогноз погоды по городам России и ближнего зарубежья на январь 2020 года.
Карты: Прогноз на январь и февраль 2020 года, Сравнение прогнозируемой аномалии приземной температуры воздуха на январь 2020 года по разным моделям.




Погода в Вытегре - сегодня

Время (UTC), дата Ветер
(°,м/с) 
Видим.   Явления Облачность Т
(°С)
Тd
(°С)
f(%) Тe
(°С)
Pmin
(гПа)
dP
(гПа)
Po
(мм)
O2
(г/м3)
Тmin Tmax R s Состояние
почвы
12 26.11.20 140 (ЮВ) 4{10}  2000 м  снег{ливн. осадки}  10/10 210 м 
[Frnb|Ns]
-0.8 -0.8 100 -3  1007  -3.1  750  303           
15 26.11.20 140 (ЮВ) 2000 м  снег  10/10 210 м 
[Frnb|Ns]
-0.7 -0.7 100 -3  1005.6  -1.4  749  303    -0.6     
18 26.11.20 130 (ЮВ) 2000 м  снег  10/10 240 м 
[Frnb|Ns]
-0.7 -0.7 100 -3  1004.5  -1.1  748  302           
03 27.11.20 090 (В) 4000 м  слаб. снег  10/10 210 м 
[Frnb|Ns]
-0.3 -0.3 100 -1  1005  0.6  748  302  -0.7    18  равномерный
мокрый или
старый снег
100% 
12 27.11.20 070 (В) 4000 м  слаб. снег  10/6 200 м средняя 
[Frnb|As op]
-0.6 -0.6 100 -2  1011.3  2.4  753  304           
15 27.11.20 080 (В) 4000 м  слаб. снег  10/6 210 м средняя 
[Frnb|As op]
-0.8 -0.8 100 -3  1014.3  2.9  755  305    -0.3     
18 27.11.20 090 (В) 10 км  {снег}  9/6 600 м средняя 
[Sc|Ac trans]
-0.5 -0.5 100 -2  1017.5  3.2  758  306           
03 28.11.20 090 (В) 10 км    10/10 570 м 
[Sc]
-2 -2.6 96 -4  1025.5  2.3  764  310  -2.1    0.0  18  равномерный
мокрый или
старый снег
100% 
12 28.11.20 090 (В) 10 км    10/10 450 м 
[St]
-3.2 -3.6 97 -4  1031.2  1.4  768  314           
15 28.11.20 080 (В) 10 км    10/10 400 м 
[St]
-4.1 -4.3 99 -7  1032.9  1.7  769  315    -2       
18 28.11.20 100 (В) 10 км    10/10 360 м 
[St]
-4.2 -4.4 99 -7  1034.4  1.5  770  316           
03 29.11.20 060 (СВ) 10 км    10/10 600 м 
[Sc]
-4.1 -4.3 99 -5  1035.8  0.1  771  316  -4.3      18  равномерный
мокрый или
старый снег
100% 
12 29.11.20 110 (В) 20000 м    10/10 600 м 
[Sc]
-4.6 -5.2 96 -7  1035.6  -0.5  771  317           
15 29.11.20 110 (В) 10 км    10/10 660 м 
[Sc]
-4.4 -4.6 99 -7  1035  -0.6  771  316    -3.9       
18 29.11.20 120 (ЮВ) 10 км    9/9 300 м 
[St]
-3.7 -3.7 100 -6  1033.8  -1.2  770  315    -3.6       
03 30.11.20 120 (ЮВ) 4000 м  слаб. снег  10/10 330 м 
[Sc]
-1.1 -1.1 100 -3  1030.5  -1.3  767  311  -4.4    0.0  18  равномерный
мокрый или
старый снег
100% 
12 30.11.20 120 (ЮВ) 20000 м  {снег}  10/10 540 м 
[Sc]
+0.8 +0.5 98 -1  1026.7  -1.7  765  307           
15 30.11.20 130 (ЮВ) 10 км  {снег}  10/10 450 м 
[Sc]
+0.8 +0.8 100 -2  1024.9  -1.7  763  307    +0.9  0.0     
18 30.11.20 130 (ЮВ) 4000 м  слаб. снег  10/10 420 м 
[Sc]
+0.7 +0.7 100 -2  1023.5  -1.4  762  306           
03 01.12.20 160 (Ю) 10 км    8/8 630 м 
[Sc]
+0.2 -2.4 83 -1  1023.7  0.2  762  307  +0    0.0  11  равномерный
мокрый или
старый снег
100% 
12 01.12.20 180 (Ю) 50000 м    9/9 800 м кучево-дожд. 
[Cb cap]
+0.2 -2.1 85 -2  1024.9  0.5  763  308           
15 01.12.20 160 (Ю) 10 км  {снег}  10/10 300 м 
[Frnb]
+0.1 -1.4 90 -2  1026.2  1.3  764  308    +0.4  0.0     
03 02.12.20 190 (Ю) 4000 м  слаб. снег  10/6 240 м средняя 
[Frnb|As op]
+0.2 -1.2 90 -1  1029.6  0.9  767  309  -0.1    0.7  11  равномерный
мокрый или
старый снег
100% 
12 02.12.20 180 (Ю) 20000 м  в посл. час снег  10/10 360 м 
[St]
+0.8 -0.6 90 1032.2  0.4  769  309           
15 02.12.20 170 (Ю) 4000 м  слаб. снег  10/10 330 м 
[Frnb]
+0.6 -0.5 92 1032.7  0.4  769  309    +0.9  0.1     
Время (UTC), дата Ветер
(°,м/с) 
Видим.   Явления Облачность Т
(°С)
Тd
(°С)
f(%) Тe
(°С)
Pmin
(гПа)
dP
(гПа)
Po
(мм)
O2
(г/м3)
Тmin Tmax R s Состояние
почвы

Для получения пояснительной информации подведите курсор к названию столбца.

ПОГОДА в Вытегре - архив

Всё, что Вы хотите узнать о погоде в Вытегре - удобно и подробно!

Выберите нужную дату (начиная с 1 января 2019* года) и нажмите кнопку "Найти".
Будут отображены архивные сводки погоды по пункту Вытегра, начиная с указанной даты.


Отображать данные в формате CSV (для использования в таблицах Excel)


Внимание! Наш архив погоды предназначен исключительно для личного некоммерческого использования в познавательных целях. Если Вам необходимы официальные справки о состоянии погоды (для производственных, юридических, коммерческих и т.п. целей), обращайтесь в органы Росгидромета.

*Примечание: данная дата относится к архиву по метеостанциям СССР (Россия, СНГ, Балтия).
Архив по метеостанциям Зарубежной Европы и Азии (кроме Китая) хранится 10 дней, по другим регионам земного шара (Китай, Африка, Америка, Австралия, Океания) - 1 день.

Вытегра - район местоположения метеостанции


Название, широта, долгота, высота метеостанции:
Вытегра 61°ш. 36.4°д. 56 м над ур. моря [Российская Федерация]

Дополнительная информация

В oтличие oт бoльшинства пoгoдных сайтoв мы публикуем пoдрoбную метеoинфoрмацию в детальнoм прoфессиoнальнoм фoрмате.

Характеристики температуры и влажнoсти вoздуха измеряются на высoте 2 м в тени вдали oт зданий и деревьев.
Скoрoсть ветра измеряется на высoте 10 м (на урoвне рoста челoвека скoрoсть ветра ниже в 1.5-2 раза). Если метеoстанция нахoдится в гoрoде или в лесу, тo скoрoсть ветра занижена на 2-4 м/с пo сравнению с oткрытым местoм. Скoрoсть ветра над акватoриями крупных рек и oзёр, а также на вершинах хoлмoв на 2-5 м/с выше, чем в oбычных услoвиях.
Атмoсфернoе давление в разных тoчках местнoсти мoжет значительнo oтличаться oт давления на метеoстанции, в зависимoсти oт услoвий рельефа (при пoдъёме на 10 м давление пoнижается примернo на 1 мм рт.ст.).